Tracking 30918 objects as of 2-Jul-2025
HD Live streaming from Space Station
objects crossing your sky now

COSMOS 1249 COOLANT

Track COSMOS 1249 COOLANT now!
10-day predictions


NORAD ID: 26508
Int'l Code: 1981-021K
Perigee: 890.3 km
Apogee: 966.7 km
Inclination: 65.0 °
Period: 103.4 minutes
Semi major axis: 7299 km
RCS: 0.0061 m2 (small)
Launch date: March 5, 1981
Source: Commonwealth of Independent States (former USSR) (CIS)
Launch site: TYURATAM MISSILE AND SPACE COMPLEX (TTMTR)

Note: This is SATELLITE DEBRIS
Your satellite tracking list
Your tracking list is empty




NASA's NSSDC Master Catalog

Two Line Element Set (TLE):
1 26508U 81021K   25169.29941103  .00000071  00000-0  12494-3 0  9996
2 26508  64.9640 178.3359 0052346 334.1418  44.5921 13.92073397608016
Source of the keplerian elements: AFSPC